Location: *
(43.9900°N, 3.4811°E)
Time: 21:12:21
(UTC+00:00)

Cosmos 1125 Rocket - Visible Passes

Search period start: 19 November 2019 00:00
Search period end: 29 November 2019 00:00
Orbit: 758 x 780 km, 74.0° (Epoch: 17 November)

Date Brightness Start Highest point End Pass type
(mag) Time Alt. Az. Time Alt. Az. Time Alt. Az.
19 Nov 5.5 04:30:53 10° SSE 04:35:23 29° E 04:39:52 10° NE visible
19 Nov 4.0 06:12:23 10° SW 06:17:18 38° WNW 06:22:13 10° N visible
20 Nov 6.2 03:55:26 10° SE 03:58:49 17° E 04:02:13 10° NE visible
20 Nov 3.5 05:35:08 10° SSW 05:40:21 62° WNW 05:45:35 10° NNE visible
21 Nov 3.6 04:58:14 10° SSW 05:03:30 81° ESE 05:08:47 10° NNE visible
22 Nov 4.4 04:21:43 10° S 04:26:46 48° ESE 04:31:49 10° NNE visible
22 Nov 4.5 06:04:48 10° WSW 06:09:05 25° WNW 06:13:24 10° N visible
23 Nov 5.3 03:45:39 10° SSE 03:50:07 29° E 03:54:36 10° NE visible
23 Nov 3.9 05:27:08 10° SW 05:32:02 38° WNW 05:36:57 10° N visible
24 Nov 6.0 03:11:03 13° SE 03:13:34 17° E 03:16:56 10° NE visible
24 Nov 3.4 04:51:34 21° SW 04:55:06 63° WNW 05:00:20 10° NNE visible
25 Nov 3.5 04:17:52 74° SSE 04:18:15 80° ESE 04:23:32 10° NNE visible
25 Nov 5.0 05:58:17 12° W 06:01:00 16° NW 06:04:15 10° NNW visible
26 Nov 4.9 03:43:16 34° NE 03:43:16 34° NE 03:46:33 10° NNE visible
26 Nov 4.5 05:23:38 25° WNW 05:23:50 25° WNW 05:28:08 10° N visible
27 Nov 6.1 03:08:13 15° NE 03:08:13 15° NE 03:09:20 10° NE visible
27 Nov 4.5 04:48:34 30° NNW 04:48:34 30° NNW 04:51:41 10° N visible
28 Nov 5.2 04:13:14 22° N 04:13:14 22° N 04:15:04 10° NNE visible
28 Nov 5.5 05:53:34 10° NW 05:53:34 10° NW 05:54:02 10° NW visible
